Visibility
15.0 15.0 15.0 15.0 15.0 15.0 15.0 15.0 15.0 15.0 15.0 6.1 12.9 15.0 15.0 15.0 15.0 15.0 15.0 11.8 5.6 8.8 14.6 12.4 8.3 11.9 11.0
15.0 15.0 15.0 15.0 15.0 15.0 15.0 15.0 14.9 14.5 14.8 15.0 15.0 15.0 15.0 15.0 15.0 10.4 15.0 15.0 15.0 15.0 15.0 15.0 15.0 7.2 7.4
6.3 15.0 15.0 15.0 11.1 10.8 15.0 15.0 15.0 15.0 15.0 15.0 15.0 15.0 15.0 11.6 15.0 15.0 15.0 15.0 7.4 15.0 15.0 14.6 4.4 8.2 15.0
7.2 3.2 10.7 14.4 15.0 15.0 15.0 15.0 15.0 15.0 15.0 15.0 15.0 10.0 15.0 15.0 15.0 15.0 15.0 15.0 10.6 10.5 15.0 15.0 14.9 14.4 15.0
0.3 0.3 14.0 15.0 15.0 15.0 15.0 0.4 15.0 15.0 15.0 15.0 13.9 15.0 15.0 15.0 15.0 15.0 15.0 14.1 4.5 0.9 10.4 13.4 13.4 13.1 11.8
0.1 15.0 15.0 15.0 15.0 14.8 1.9 0.3 0.3 15.0 14.9 15.0 15.0 15.0 15.0 15.0 15.0 6.7 5.3 15.0 15.0 15.0 1.5 3.2 14.3 15.0 15.0
15.0 15.0 14.6 15.0 0.4 0.1 8.5 5.1 1.7 14.1 13.5 13.0 15.0 14.2 15.0 15.0 15.0 15.0 15.0 12.4 7.7 13.9 15.0 15.0 15.0 15.0 15.0
15.0 10.7 7.0 4.9 14.0 15.0 15.0 1.3 5.9 15.0 15.0 4.0 15.0 15.0 15.0 15.0 15.0 15.0 14.9 3.6 2.3 2.3 2.3 1.8 2.8 6.8 14.8
2.3 6.6 15.0 15.0 15.0 10.3 0.2 0.1 0.7 15.0 15.0 14.1 5.7 15.0 15.0 15.0 15.0 15.0 15.0 4.5 3.5 10.6 9.2 12.3 15.0 13.7 14.4
15.0 15.0 15.0 15.0 11.4 15.0 0.5 0.1 0.2 0.2 15.0 0.2 0.7 6.5 0.1 15.0 15.0 15.0 15.0 15.0 10.4 2.7 7.6 14.4 15.0 15.0 15.0
15.0 15.0 15.0 15.0 15.0 13.5 0.6 0.1 0.1 0.1 15.0 0.2 0.1 0.5 0.4 0.6 15.0 15.0 15.0 15.0 11.1 0.5 0.4 0.1 10.6 15.0 15.0
15.0 15.0 15.0 7.6 5.1 0.9 0.5 0.2 0.2 0.1 0.2 0.1 0.1 0.1 0.1 0.3 10.5 15.0 15.0 1.3 0.1 0.1 0.1 0.0 0.0 4.6 15.0
1.3 6.2 11.1 2.0 0.9 0.9 5.1 13.5 13.5 10.9 0.8 0.1 0.1 0.1 0.3 0.2 0.3 6.1 0.2 1.9 0.2 0.0 0.0 0.0 0.1 0.2 0.1
0.2 3.7 3.3 0.3 0.2 0.6 0.1 0.5 0.2 14.4 15.0 4.9 0.1 0.1 0.3 4.2 2.1 0.3 0.1 0.1 0.6 0.0 0.0 0.0 1.0 3.7 2.4
0.2 0.2 0.5 0.5 0.5 1.9 0.3 0.2 0.1 0.1 0.5 10.2 15.0 14.7 14.4 1.7 0.4 0.1 0.1 0.1 0.1 0.0 0.0 0.0 0.0 0.1 9.4
0.6 0.7 0.1 0.2 0.2 0.4 1.3 0.1 0.1 0.1 0.2 0.3 0.3 12.2 15.0 5.9 0.1 0.1 0.1 0.1 0.0 0.0 0.0 0.0 0.0 0.0 0.2
0.3 0.1 0.2 0.6 1.5 0.2 0.2 0.2 0.2 0.3 0.2 0.5 0.1 0.1 0.2 0.1 0.7 0.0 0.1 0.1 0.0 0.0 0.0 0.0 0.0 0.0 0.0